GFSNGP_925_temp_132.txt.gz
Temp
11 12 12 11 11 12 10 10 9 6 8 5 4 4 4 3 1 1 -0 -0 -2 -2 -1 -2 -1 -1 -1 -1 -2 -2 -2 -2 -2 -2 -2 -2 -3 -3 -3 -3 -3 -3 -2 -2
10 11 11 10 10 10 11 10 8 9 8 5 4 4 3 2 2 1 1 0 -0 -1 -0 -1 -1 -1 -1 -1 -2 -2 -2 -3 -3 -3 -3 -3 -3 -4 -4 -4 -4 -4 -4 -3
9 11 11 9 9 9 9 10 10 8 8 4 4 4 3 2 2 1 1 0 -1 -2 -1 -1 -1 -1 -1 -2 -2 -2 -3 -3 -4 -4 -4 -4 -4 -3 -4 -5 -5 -5 -5 -4
9 11 8 9 11 10 11 11 8 6 5 5 4 3 1 1 1 1 1 -0 -1 -2 -1 -1 -2 -1 -1 -2 -2 -3 -3 -4 -4 -5 -5 -5 -5 -5 -5 -5 -7 -7 -7 -6
9 10 9 10 10 10 10 10 8 6 4 3 2 1 1 1 1 1 1 -0 -1 -1 -2 -2 -2 -2 -2 -2 -3 -3 -3 -4 -5 -5 -6 -6 -7 -7 -7 -7 -7 -8 -9 -8
8 9 9 9 8 9 11 8 7 5 3 2 1 3 1 0 0 1 1 -0 -1 -2 -3 -3 -3 -3 -4 -4 -3 -4 -4 -4 -4 -5 -6 -7 -7 -8 -8 -8 -8 -8 -8 -8
9 9 9 8 7 8 9 8 7 5 4 2 2 1 0 0 0 0 0 -1 -2 -3 -4 -5 -4 -4 -5 -5 -4 -4 -4 -4 -5 -5 -6 -6 -7 -8 -8 -8 -8 -9 -9 -8
8 8 9 6 7 8 6 3 3 3 4 2 0 -0 0 -0 -1 1 -0 -2 -3 -4 -5 -6 -6 -6 -6 -6 -5 -4 -4 -5 -5 -5 -6 -6 -6 -7 -7 -8 -8 -9 -9 -9
8 7 4 5 5 5 4 2 1 1 1 1 -0 -1 -1 -1 -1 -0 -1 -2 -4 -5 -6 -7 -7 -7 -7 -7 -5 -5 -5 -6 -6 -6 -6 -6 -7 -7 -8 -8 -9 -9 -9 -9
5 4 4 4 4 4 4 2 2 1 0 -0 -1 -1 -0 -0 -1 -1 -2 -3 -4 -6 -7 -8 -8 -8 -8 -7 -6 -6 -6 -7 -6 -7 -6 -6 -6 -7 -7 -8 -9 -9 -9 -9
5 4 4 4 4 3 2 2 1 1 0 -0 -0 0 1 1 -0 -2 -3 -4 -5 -6 -8 -9 -9 -8 -8 -7 -7 -7 -7 -7 -7 -7 -7 -6 -7 -7 -7 -8 -8 -9 -8 -8
5 4 3 4 3 3 2 2 1 1 0 1 1 -0 0 -1 -2 -3 -4 -5 -6 -7 -8 -9 -9 -9 -8 -8 -8 -8 -7 -8 -7 -7 -7 -7 -7 -7 -7 -8 -8 -8 -8 -8
4 4 1 2 2 2 1 1 1 1 0 0 0 -0 -1 -3 -3 -4 -5 -6 -7 -7 -9 -9 -9 -9 -9 -8 -8 -8 -8 -8 -7 -8 -8 -8 -8 -8 -9 -8 -8 -9 -9 -9
2 3 2 1 1 1 1 1 1 1 1 -1 -2 -2 -3 -4 -4 -5 -6 -6 -7 -8 -9 -9 -9 -9 -9 -9 -8 -8 -8 -8 -8 -8 -8 -9 -9 -9 -9 -9 -9 -9 -9 -10
2 3 2 3 2 1 1 1 -0 -1 -2 -3 -3 -4 -4 -5 -6 -6 -6 -7 -8 -8 -9 -9 -9 -9 -9 -9 -9 -8 -8 -8 -8 -9 -9 -9 -9 -9 -10 -10 -10 -10 -10 -10
3 2 2 2 2 0 0 -0 -2 -2 -3 -3 -4 -5 -5 -6 -7 -7 -7 -7 -7 -9 -9 -9 -9 -9 -9 -9 -9 -9 -9 -9 -9 -9 -9 -9 -10 -10 -10 -10 -10 -11 -11 -11
1 2 2 1 0 -0 -0 -1 -2 -2 -4 -5 -6 -6 -6 -7 -8 -8 -8 -8 -8 -8 -8 -8 -9 -9 -9 -9 -9 -9 -9 -9 -9 -9 -9 -10 -10 -10 -10 -10 -10 -11 -11 -11
3 2 1 1 -0 -1 -2 -2 -3 -4 -5 -5 -6 -6 -7 -7 -8 -8 -8 -8 -8 -8 -8 -8 -9 -9 -9 -9 -9 -10 -10 -10 -10 -10 -10 -10 -10 -10 -10 -10 -10 -11 -11 -11
3 1 0 0 -0 -1 -2 -3 -4 -5 -5 -5 -6 -7 -7 -7 -7 -8 -8 -8 -8 -8 -8 -9 -9 -9 -9 -9 -10 -10 -10 -11 -11 -11 -11 -11 -11 -11 -11 -11 -11 -12 -12 -12
1 1 0 -1 -1 -2 -5 -5 -4 -6 -6 -6 -7 -8 -8 -8 -8 -8 -8 -8 -8 -8 -9 -9 -9 -10 -10 -10 -11 -11 -11 -12 -12 -12 -12 -13 -13 -13 -12 -13 -13 -13 -13 -13
-1 -1 -3 -3 -5 -4 -4 -4 -5 -7 -7 -6 -7 -7 -7 -7 -8 -8 -7 -8 -9 -9 -9 -10 -10 -11 -11 -12 -12 -12 -13 -13 -13 -14 -14 -15 -15 -15 -15 -15 -15 -15 -15 -15
-5 -6 -6 -6 -7 -7 -6 -5 -5 -7 -7 -7 -7 -7 -7 -7 -7 -7 -9 -8 -9 -10 -10 -11 -11 -12 -12 -13 -13 -14 -14 -15 -15 -16 -16 -17 -17 -17 -17 -17 -17 -18 -18 -17
-6 -7 -7 -7 -7 -7 -7 -6 -7 -7 -7 -7 -7 -7 -7 -7 -7 -8 -10 -10 -10 -10 -11 -12 -13 -13 -14 -14 -15 -15 -16 -17 -17 -18 -18 -19 -19 -19 -19 -19 -20 -20 -19 -19
-7 -7 -7 -7 -7 -8 -9 -8 -7 -7 -7 -7 -7 -7 -7 -8 -8 -9 -9 -10 -11 -11 -12 -13 -14 -14 -15 -16 -16 -17 -18 -18 -19 -19 -20 -20 -20 -20 -21 -21 -21 -21 -20 -20
-7 -7 -8 -8 -7 -8 -8 -8 -8 -8 -8 -7 -7 -7 -8 -8 -8 -10 -10 -11 -12 -13 -13 -15 -15 -16 -16 -17 -18 -19 -19 -20 -20 -20 -21 -21 -22 -22 -22 -22 -22 -22 -22 -22
-7 -7 -7 -6 -7 -7 -8 -8 -8 -8 -8 -8 -8 -8 -8 -9 -9 -10 -11 -12 -13 -14 -15 -16 -16 -17 -18 -19 -19 -20 -20 -21 -21 -22 -22 -22 -23 -23 -23 -23 -23 -24 -24 -23
-6 -6 -6 -6 -6 -6 -7 -7 -7 -7 -7 -7 -8 -9 -9 -10 -11 -12 -13 -14 -15 -15 -16 -17 -18 -18 -19 -20 -21 -21 -22 -22 -22 -23 -23 -23 -24 -24 -24 -25 -25 -25 -25 -25

GFSNGP_925_temp_135.txt.gz
Temp
9 11 11 11 10 11 10 10 9 9 9 7 5 3 2 1 0 0 -1 -1 -2 -3 -3 -2 -2 -2 -2 -2 -3 -3 -4 -4 -4 -4 -4 -4 -4 -5 -5 -5 -4 -3 -3 -2
5 10 10 9 9 10 10 10 10 10 9 6 4 2 2 2 1 1 0 -0 -1 -1 -2 -3 -3 -3 -3 -3 -3 -4 -4 -5 -5 -5 -6 -6 -6 -6 -7 -6 -6 -5 -4 -4
9 10 10 8 9 9 9 10 10 9 10 4 3 3 2 1 1 1 0 -1 -2 -3 -3 -3 -3 -3 -3 -3 -3 -4 -5 -5 -5 -6 -6 -7 -7 -7 -7 -8 -8 -7 -6 -5
9 8 8 9 10 10 9 11 10 7 4 4 3 2 1 1 0 1 -0 -1 -2 -3 -3 -3 -3 -3 -3 -4 -4 -4 -5 -6 -6 -6 -7 -7 -8 -8 -8 -8 -9 -9 -8 -6
8 9 9 10 10 10 9 10 8 6 3 2 1 0 -1 0 0 0 -1 -2 -2 -3 -4 -4 -4 -4 -4 -4 -5 -5 -5 -6 -6 -7 -7 -7 -8 -8 -9 -9 -9 -9 -9 -7
8 9 9 9 8 9 9 8 7 4 2 1 1 2 -0 -0 -0 -1 -1 -2 -3 -4 -4 -5 -5 -4 -5 -5 -5 -6 -5 -6 -6 -7 -7 -8 -8 -8 -8 -9 -9 -9 -9 -9
8 8 9 9 8 8 8 8 6 5 3 2 2 1 -1 -1 -1 -1 -2 -3 -4 -5 -6 -6 -6 -5 -6 -6 -6 -6 -6 -6 -6 -6 -7 -8 -8 -8 -8 -9 -9 -9 -9 -9
8 8 8 7 7 8 5 2 3 4 3 2 -0 -0 -1 -1 -1 -1 -2 -4 -4 -6 -7 -7 -7 -6 -7 -7 -6 -6 -6 -6 -7 -7 -7 -7 -7 -8 -9 -9 -9 -9 -9 -9
9 8 5 5 5 4 4 3 1 1 2 1 1 -0 -2 -2 -2 -1 -3 -4 -5 -6 -7 -8 -8 -7 -8 -7 -7 -6 -6 -7 -7 -7 -7 -8 -8 -8 -9 -9 -9 -9 -9 -10
7 5 4 5 3 3 3 1 1 1 1 0 -1 -1 -2 -2 -2 -2 -3 -4 -5 -6 -7 -8 -8 -8 -8 -7 -7 -7 -7 -7 -7 -8 -7 -8 -8 -8 -8 -8 -8 -9 -9 -10
5 4 4 5 4 2 1 1 1 1 0 -0 -0 -0 -1 -1 -2 -3 -4 -5 -6 -7 -8 -9 -9 -8 -8 -8 -7 -7 -7 -8 -8 -8 -8 -8 -8 -9 -8 -8 -8 -9 -9 -9
5 4 4 3 3 2 1 1 1 -0 -1 -1 -0 -0 -2 -3 -3 -4 -5 -6 -7 -7 -8 -9 -9 -8 -8 -8 -8 -8 -8 -8 -8 -8 -8 -9 -9 -9 -9 -9 -8 -9 -9 -9
4 3 1 2 3 2 2 0 -0 -1 -1 -1 -1 -2 -3 -4 -3 -4 -6 -6 -7 -8 -9 -9 -9 -9 -9 -8 -8 -8 -8 -8 -8 -9 -9 -9 -10 -10 -10 -9 -9 -10 -10 -10
3 2 2 2 2 2 2 1 1 -0 -1 -2 -2 -3 -4 -3 -4 -5 -6 -7 -8 -8 -9 -9 -9 -9 -9 -9 -8 -8 -9 -9 -9 -9 -9 -10 -10 -10 -10 -10 -11 -10 -10 -11
3 3 2 2 1 1 0 -0 -1 -2 -3 -3 -4 -5 -4 -5 -6 -7 -7 -7 -8 -8 -9 -9 -9 -9 -9 -9 -9 -9 -9 -9 -9 -9 -10 -10 -10 -10 -10 -10 -11 -11 -10 -10
2 1 1 1 1 0 -0 -1 -2 -3 -4 -4 -4 -4 -5 -6 -7 -7 -7 -7 -8 -9 -9 -9 -9 -9 -9 -9 -9 -9 -9 -9 -10 -10 -10 -10 -10 -10 -10 -11 -11 -11 -11 -11
1 1 1 1 1 0 -1 -2 -2 -3 -4 -4 -6 -6 -6 -7 -8 -8 -8 -7 -7 -8 -8 -9 -9 -9 -9 -9 -9 -10 -10 -10 -10 -10 -11 -11 -11 -11 -11 -11 -11 -12 -11 -12
2 1 2 2 0 -1 -2 -2 -3 -4 -5 -6 -6 -6 -7 -8 -9 -9 -8 -8 -8 -8 -9 -9 -9 -9 -9 -9 -10 -10 -11 -11 -11 -11 -12 -12 -12 -12 -12 -12 -13 -13 -13 -13
2 0 0 1 -1 -1 -2 -3 -4 -4 -5 -5 -6 -7 -7 -7 -8 -8 -8 -8 -8 -8 -9 -9 -9 -9 -10 -10 -11 -11 -11 -12 -12 -13 -13 -13 -13 -13 -14 -14 -14 -15 -15 -15
-1 -0 -0 -1 -1 -2 -4 -4 -4 -5 -5 -6 -6 -7 -8 -8 -8 -8 -8 -8 -8 -9 -9 -9 -10 -10 -11 -11 -12 -12 -13 -13 -14 -14 -14 -15 -15 -15 -16 -16 -16 -16 -16 -17
-3 -2 -3 -3 -4 -3 -3 -4 -5 -7 -6 -6 -6 -8 -8 -8 -8 -8 -9 -9 -9 -9 -10 -10 -11 -11 -12 -12 -13 -14 -14 -15 -15 -16 -16 -17 -17 -17 -18 -18 -18 -18 -19 -18
-4 -5 -5 -5 -6 -7 -5 -5 -5 -6 -7 -7 -7 -7 -8 -9 -8 -9 -8 -8 -10 -10 -10 -11 -12 -13 -13 -14 -14 -15 -16 -16 -17 -17 -18 -19 -19 -19 -19 -20 -20 -20 -20 -20
-5 -5 -6 -6 -7 -7 -7 -6 -6 -7 -7 -7 -7 -7 -7 -8 -8 -9 -10 -10 -10 -11 -11 -12 -13 -14 -15 -15 -16 -17 -17 -18 -19 -19 -20 -20 -20 -21 -21 -21 -21 -21 -21 -21
-7 -6 -7 -6 -7 -8 -9 -9 -7 -7 -7 -7 -7 -7 -7 -8 -9 -9 -9 -10 -11 -12 -13 -14 -14 -15 -16 -17 -17 -18 -19 -20 -20 -21 -21 -21 -22 -22 -22 -23 -23 -23 -22 -23
-7 -7 -7 -8 -8 -8 -8 -9 -8 -8 -8 -8 -8 -8 -8 -8 -8 -10 -10 -11 -12 -13 -14 -15 -16 -17 -17 -18 -19 -19 -20 -21 -21 -22 -22 -23 -23 -23 -23 -24 -24 -24 -24 -24
-7 -7 -7 -7 -7 -8 -8 -8 -8 -9 -8 -8 -8 -8 -9 -9 -9 -11 -12 -13 -13 -14 -15 -16 -17 -18 -19 -19 -20 -21 -21 -22 -22 -23 -23 -24 -24 -24 -25 -25 -25 -25 -25 -25
-7 -7 -7 -7 -7 -7 -8 -8 -8 -8 -8 -8 -9 -9 -9 -10 -11 -12 -13 -14 -15 -16 -17 -18 -18 -19 -20 -20 -21 -22 -22 -23 -23 -24 -24 -25 -25 -25 -26 -26 -26 -26 -26 -26

GFSNGP_925_temp_138.txt.gz
Temp
9 9 9 10 9 9 10 10 9 10 10 11 7 4 3 1 -0 -0 -1 -1 -3 -6 -4 -3 -3 -4 -4 -4 -4 -5 -5 -6 -6 -6 -7 -7 -7 -7 -6 -7 -6 -5 -4 -4
5 9 8 8 7 8 9 9 9 10 10 8 4 2 1 1 1 1 0 -1 -2 -3 -3 -4 -4 -4 -4 -4 -5 -5 -6 -6 -6 -7 -7 -8 -8 -8 -8 -7 -7 -6 -5 -5
8 9 8 8 6 8 9 9 10 9 10 4 3 3 2 1 1 1 0 -1 -3 -4 -4 -5 -5 -5 -5 -5 -5 -6 -6 -6 -6 -7 -7 -8 -8 -8 -8 -8 -8 -7 -6 -5
8 8 7 7 9 9 9 10 9 7 5 5 4 2 1 0 0 1 -1 -2 -3 -5 -5 -5 -4 -4 -5 -5 -5 -6 -6 -7 -7 -7 -8 -8 -8 -9 -9 -9 -8 -8 -7 -7
8 8 9 9 10 9 9 10 9 7 3 1 0 0 -1 0 -0 -1 -2 -3 -4 -4 -5 -5 -5 -5 -5 -6 -6 -6 -7 -7 -7 -8 -8 -8 -8 -9 -9 -9 -9 -9 -9 -8
6 7 8 9 9 8 9 8 7 4 2 1 1 3 0 -1 -1 -2 -3 -4 -5 -5 -5 -5 -6 -5 -6 -6 -6 -7 -7 -7 -7 -7 -8 -9 -9 -9 -9 -9 -9 -9 -9 -9
7 8 8 9 8 8 8 8 6 4 2 1 2 0 -1 -1 -2 -3 -4 -4 -5 -6 -7 -7 -6 -6 -6 -7 -7 -7 -7 -7 -7 -7 -8 -8 -9 -9 -9 -9 -9 -9 -9 -9
8 8 8 7 7 8 6 3 4 3 2 2 -0 -1 -1 -2 -3 -3 -4 -5 -5 -6 -7 -7 -7 -7 -7 -7 -7 -7 -7 -7 -7 -8 -8 -8 -8 -8 -9 -9 -9 -10 -10 -9
8 7 5 5 4 4 4 4 2 2 2 0 -0 -0 -2 -3 -3 -3 -4 -5 -6 -7 -8 -8 -8 -8 -8 -7 -7 -7 -7 -8 -8 -8 -8 -8 -8 -8 -8 -9 -9 -10 -10 -10
8 6 5 5 3 3 3 2 1 1 1 0 -1 -1 -2 -2 -3 -4 -5 -6 -6 -7 -8 -8 -8 -8 -8 -7 -7 -7 -7 -8 -8 -9 -9 -9 -9 -9 -8 -9 -9 -10 -10 -10
6 5 4 4 4 2 1 1 1 1 0 0 -1 -1 -2 -3 -4 -4 -5 -6 -6 -7 -8 -9 -9 -8 -8 -8 -8 -7 -8 -8 -9 -9 -9 -9 -10 -10 -9 -9 -9 -9 -10 -10
7 6 5 4 3 1 0 0 -0 -0 -0 -0 -1 -1 -2 -4 -4 -4 -6 -6 -7 -8 -8 -9 -9 -8 -8 -8 -8 -8 -8 -9 -9 -9 -10 -10 -10 -10 -10 -10 -10 -10 -10 -10
5 4 1 1 1 2 -0 0 0 -1 -1 -1 -2 -3 -3 -4 -4 -5 -6 -7 -7 -8 -9 -9 -9 -9 -9 -8 -8 -8 -9 -9 -9 -10 -10 -10 -10 -10 -10 -10 -10 -10 -11 -10
2 2 3 2 2 2 1 -0 -0 -1 -2 -2 -3 -4 -4 -4 -5 -6 -6 -7 -8 -8 -9 -9 -9 -9 -9 -9 -9 -9 -9 -9 -9 -10 -10 -10 -10 -10 -11 -11 -11 -11 -10 -11
2 3 2 2 2 2 1 -0 -1 -2 -2 -3 -4 -4 -4 -5 -6 -7 -7 -7 -8 -8 -9 -9 -9 -10 -9 -9 -9 -9 -9 -9 -10 -10 -10 -10 -10 -10 -10 -11 -11 -11 -11 -11
1 1 1 1 1 0 0 -1 -2 -2 -3 -4 -4 -4 -5 -6 -6 -7 -7 -7 -8 -9 -9 -9 -9 -9 -9 -9 -9 -9 -10 -10 -10 -10 -11 -11 -11 -11 -11 -11 -11 -12 -12 -13
1 1 1 1 1 0 -0 -2 -2 -3 -4 -5 -5 -5 -6 -6 -7 -7 -8 -8 -8 -8 -9 -9 -9 -9 -9 -9 -9 -10 -10 -10 -11 -11 -12 -12 -12 -12 -13 -13 -13 -14 -14 -14
2 1 1 1 1 -0 -1 -2 -3 -4 -5 -6 -6 -6 -7 -8 -9 -8 -8 -8 -8 -9 -9 -9 -9 -9 -9 -10 -10 -10 -11 -11 -12 -13 -13 -13 -14 -14 -15 -15 -15 -15 -15 -15
1 0 1 1 0 -1 -2 -3 -4 -4 -5 -6 -7 -8 -7 -7 -7 -8 -8 -8 -8 -9 -9 -9 -9 -10 -10 -11 -11 -11 -12 -13 -13 -14 -14 -15 -15 -16 -16 -17 -17 -17 -18 -18
-1 -0 -0 -1 -1 -2 -4 -4 -4 -5 -6 -6 -7 -8 -8 -8 -8 -8 -8 -8 -8 -9 -9 -9 -10 -11 -11 -12 -12 -13 -13 -14 -15 -15 -16 -17 -17 -17 -18 -18 -19 -19 -19 -19
-3 -2 -3 -3 -4 -2 -2 -3 -4 -6 -7 -6 -7 -8 -8 -8 -8 -9 -9 -10 -9 -9 -10 -10 -11 -11 -12 -13 -13 -14 -15 -15 -16 -17 -18 -18 -18 -19 -19 -20 -20 -20 -21 -21
-4 -5 -5 -5 -5 -6 -5 -5 -5 -6 -7 -7 -7 -7 -8 -10 -9 -9 -9 -9 -10 -10 -10 -11 -12 -13 -13 -14 -15 -15 -16 -17 -18 -18 -19 -19 -20 -21 -21 -21 -22 -22 -22 -22
-4 -5 -6 -6 -7 -8 -7 -6 -6 -6 -7 -7 -7 -8 -8 -9 -9 -10 -10 -10 -10 -11 -11 -12 -13 -14 -14 -15 -16 -17 -18 -18 -19 -20 -20 -21 -21 -22 -23 -23 -23 -23 -23 -23
-7 -6 -7 -6 -7 -8 -9 -9 -7 -7 -7 -7 -7 -7 -8 -9 -9 -9 -9 -10 -11 -11 -12 -13 -14 -15 -16 -17 -17 -18 -19 -20 -20 -21 -21 -22 -23 -23 -23 -24 -24 -24 -24 -25
-6 -7 -7 -7 -7 -8 -8 -9 -9 -9 -8 -8 -8 -8 -8 -8 -8 -10 -10 -11 -12 -12 -13 -15 -16 -17 -17 -18 -19 -19 -20 -21 -21 -22 -23 -23 -24 -24 -25 -25 -25 -25 -25 -25
-6 -7 -7 -6 -7 -7 -8 -8 -9 -9 -9 -9 -9 -9 -9 -8 -9 -10 -11 -12 -13 -14 -15 -16 -17 -18 -18 -19 -20 -21 -21 -22 -22 -23 -24 -24 -25 -25 -25 -26 -26 -26 -26 -26
-6 -7 -7 -7 -7 -7 -8 -8 -9 -9 -9 -9 -9 -10 -9 -9 -10 -11 -12 -13 -14 -15 -16 -17 -18 -19 -19 -20 -21 -22 -22 -23 -23 -24 -25 -25 -25 -26 -26 -26 -27 -27 -27 -27

GFSNGP_925_temp_141.txt.gz
Temp
11 11 11 11 11 11 11 11 10 11 11 12 12 10 7 4 1 1 0 0 -1 -2 -3 -4 -3 -4 -3 -3 -4 -4 -4 -5 -6 -6 -7 -7 -7 -8 -7 -7 -6 -5 -5 -5
7 10 10 10 8 9 10 10 10 10 10 12 8 5 4 3 3 2 2 1 -0 -1 -2 -3 -3 -3 -4 -4 -4 -4 -4 -5 -5 -5 -6 -7 -7 -8 -8 -8 -7 -7 -6 -5
9 10 10 10 8 8 10 10 11 11 12 8 7 6 5 3 4 3 2 0 -1 -3 -3 -4 -4 -4 -4 -4 -5 -5 -5 -5 -5 -5 -6 -6 -6 -7 -8 -8 -8 -8 -7 -6
9 9 8 11 10 11 10 11 11 11 10 8 7 5 4 4 3 2 1 -1 -2 -4 -4 -5 -5 -5 -5 -5 -5 -5 -6 -6 -6 -6 -6 -7 -7 -7 -7 -7 -8 -9 -8 -8
8 10 11 11 12 11 10 11 12 11 7 4 3 3 2 2 3 2 1 -1 -3 -4 -5 -6 -5 -5 -5 -6 -6 -6 -6 -7 -7 -7 -7 -7 -8 -8 -8 -8 -8 -9 -10 -9
7 8 9 11 10 9 10 11 8 8 6 4 4 7 6 2 1 -0 -2 -3 -4 -5 -5 -5 -5 -5 -6 -6 -6 -6 -7 -7 -7 -7 -8 -8 -8 -8 -8 -8 -8 -8 -9 -10
8 8 10 11 9 9 9 10 7 6 6 4 6 5 2 1 -1 -1 -2 -4 -5 -5 -5 -6 -6 -6 -6 -6 -6 -7 -6 -7 -7 -7 -7 -8 -8 -8 -9 -9 -9 -9 -9 -10
8 8 8 8 8 9 8 6 5 5 4 4 2 1 0 -1 -2 -2 -3 -4 -5 -6 -6 -7 -6 -6 -6 -6 -6 -6 -7 -7 -7 -7 -7 -7 -7 -8 -8 -9 -9 -9 -9 -9
10 10 8 7 8 7 6 6 5 5 4 3 1 0 -1 -3 -2 -3 -3 -4 -5 -6 -6 -7 -7 -7 -6 -7 -6 -6 -7 -7 -7 -8 -8 -8 -7 -7 -8 -8 -8 -8 -8 -9
9 9 8 7 6 5 5 5 4 4 3 2 1 -0 -1 -2 -2 -3 -4 -5 -5 -6 -6 -7 -7 -7 -7 -7 -7 -7 -7 -7 -8 -8 -8 -8 -8 -8 -8 -8 -8 -9 -9 -9
8 8 7 7 6 5 3 3 2 3 2 1 1 0 -0 -1 -3 -3 -4 -5 -5 -6 -6 -7 -8 -8 -8 -7 -7 -7 -7 -8 -8 -8 -9 -9 -9 -9 -9 -9 -9 -9 -10 -10
9 9 9 8 5 3 2 2 2 2 1 1 1 -0 -2 -3 -3 -3 -4 -5 -6 -6 -7 -8 -8 -9 -9 -8 -8 -7 -7 -8 -9 -9 -9 -9 -9 -9 -10 -10 -10 -10 -10 -10
9 6 4 3 3 2 2 1 1 1 1 1 -0 -1 -2 -3 -3 -4 -5 -5 -6 -7 -8 -8 -9 -9 -8 -9 -9 -9 -9 -9 -9 -10 -10 -10 -10 -11 -10 -10 -10 -11 -11 -11
5 4 3 3 3 2 2 1 0 -0 -0 -1 -1 -2 -2 -3 -4 -4 -5 -6 -7 -7 -8 -9 -10 -9 -9 -9 -9 -9 -9 -10 -10 -10 -10 -11 -11 -11 -11 -11 -11 -11 -11 -11
4 4 4 4 3 2 1 -0 -0 -1 -1 -2 -2 -2 -3 -4 -5 -6 -7 -7 -8 -9 -9 -9 -9 -10 -9 -9 -9 -9 -10 -10 -10 -11 -11 -11 -11 -11 -11 -11 -11 -12 -12 -12
3 3 3 3 2 1 1 0 -1 -1 -1 -2 -2 -3 -4 -4 -6 -6 -7 -8 -8 -8 -9 -9 -9 -9 -9 -9 -9 -10 -10 -10 -10 -11 -12 -12 -12 -12 -12 -12 -12 -13 -13 -15
2 2 2 2 1 1 1 0 -0 -1 -3 -3 -5 -5 -6 -7 -7 -7 -7 -7 -7 -8 -9 -9 -9 -9 -9 -9 -9 -10 -10 -11 -11 -12 -13 -13 -13 -13 -14 -14 -14 -14 -15 -16
4 4 3 3 2 1 0 -1 -1 -3 -4 -5 -6 -6 -7 -7 -7 -8 -8 -8 -9 -9 -9 -9 -9 -9 -9 -10 -10 -11 -11 -12 -13 -13 -14 -15 -15 -15 -15 -16 -16 -17 -17 -17
3 2 2 2 1 1 -1 -2 -3 -4 -5 -5 -6 -7 -7 -7 -8 -8 -8 -9 -9 -9 -9 -9 -10 -10 -10 -11 -11 -12 -13 -14 -14 -15 -15 -16 -17 -17 -17 -17 -18 -19 -19 -19
1 1 1 1 -0 -1 -3 -4 -3 -5 -5 -5 -6 -8 -8 -8 -8 -9 -9 -9 -9 -9 -9 -10 -10 -10 -11 -12 -12 -13 -14 -15 -15 -17 -17 -18 -18 -19 -19 -20 -20 -21 -21 -21
-1 -1 -2 -2 -3 -3 -2 -3 -4 -6 -7 -6 -7 -8 -9 -9 -9 -9 -10 -9 -10 -9 -10 -10 -10 -11 -12 -13 -13 -14 -15 -16 -17 -18 -19 -20 -20 -21 -21 -22 -22 -22 -22 -23
-3 -3 -4 -4 -5 -6 -5 -4 -5 -6 -7 -7 -7 -7 -8 -10 -10 -10 -9 -9 -10 -10 -10 -11 -11 -12 -13 -14 -14 -15 -17 -17 -19 -19 -20 -21 -22 -22 -22 -23 -23 -24 -24 -24
-4 -4 -5 -5 -6 -7 -7 -6 -6 -6 -7 -7 -7 -8 -9 -10 -10 -9 -9 -10 -10 -11 -11 -12 -13 -13 -14 -15 -16 -17 -18 -19 -19 -20 -21 -22 -23 -23 -24 -24 -25 -25 -25 -25
-6 -6 -7 -6 -7 -8 -8 -9 -7 -7 -7 -7 -7 -7 -8 -10 -10 -9 -9 -10 -10 -11 -12 -13 -14 -14 -15 -16 -17 -18 -19 -20 -21 -21 -22 -23 -23 -23 -24 -24 -25 -26 -26 -26
-6 -7 -7 -7 -6 -6 -8 -8 -8 -9 -9 -9 -9 -9 -8 -9 -8 -10 -9 -10 -11 -12 -13 -14 -15 -16 -16 -17 -18 -19 -20 -21 -22 -22 -23 -23 -24 -24 -25 -25 -26 -26 -26 -27
-5 -6 -6 -6 -6 -7 -8 -8 -8 -8 -9 -9 -10 -10 -9 -9 -8 -9 -11 -11 -12 -13 -14 -15 -16 -17 -18 -19 -20 -21 -21 -22 -22 -23 -23 -24 -24 -25 -25 -26 -26 -27 -27 -27
-6 -6 -6 -7 -7 -8 -8 -8 -8 -8 -9 -9 -10 -10 -9 -9 -10 -11 -11 -12 -13 -14 -15 -16 -17 -18 -19 -20 -21 -21 -22 -22 -23 -23 -24 -24 -25 -25 -25 -26 -27 -27 -27 -27

GFSNGP_925_temp_144.txt.gz
Temp
14 14 14 14 13 14 14 14 13 13 13 15 15 15 15 13 6 4 2 2 1 -0 -1 -1 -0 -0 0 -0 -0 -0 -1 -1 -2 -3 -4 -5 -6 -6 -7 -7 -6 -6 -6 -6
10 13 13 12 12 13 13 13 13 13 13 15 16 12 10 9 6 5 4 4 3 2 1 -0 1 0 -0 -0 -1 -1 -1 -1 -2 -2 -2 -3 -4 -5 -6 -7 -7 -6 -6 -6
12 14 13 12 11 11 13 14 14 13 15 16 14 13 10 8 7 7 5 4 2 1 0 -0 -0 -1 -1 -1 -2 -2 -2 -2 -2 -2 -3 -3 -3 -4 -4 -5 -7 -7 -7 -6
12 12 10 14 14 15 14 15 15 15 15 16 14 10 9 8 8 7 5 4 1 -2 -1 -1 -1 -1 -2 -2 -2 -3 -3 -3 -3 -3 -3 -4 -4 -4 -4 -5 -6 -7 -7 -7
11 12 14 14 15 14 14 14 15 13 14 11 9 8 6 7 7 6 5 3 1 -1 -3 -3 -2 -2 -3 -3 -3 -4 -5 -5 -5 -5 -5 -5 -5 -5 -5 -5 -6 -7 -7 -8
11 10 11 14 15 14 14 12 12 12 12 10 9 11 11 6 6 4 3 2 1 -0 -1 -1 -2 -2 -3 -4 -5 -5 -5 -6 -6 -6 -6 -6 -6 -6 -6 -5 -6 -6 -7 -8
11 11 13 15 13 13 11 12 11 11 11 10 10 8 7 6 4 3 2 1 -0 -0 -0 -1 -2 -2 -2 -3 -5 -5 -4 -4 -6 -6 -6 -6 -6 -6 -6 -6 -6 -6 -6 -7
11 10 10 13 11 11 12 11 10 10 10 9 9 5 5 4 2 2 1 -0 -1 -1 -1 -2 -2 -2 -2 -2 -3 -4 -4 -4 -5 -5 -5 -5 -5 -5 -6 -6 -6 -6 -6 -6
13 13 14 13 13 13 12 12 11 9 10 8 6 4 2 -0 0 1 1 -0 -1 -1 -2 -3 -2 -2 -2 -3 -4 -4 -4 -4 -5 -5 -6 -5 -5 -5 -5 -5 -6 -6 -6 -6
11 12 13 14 14 11 11 9 9 9 9 7 5 3 1 1 1 1 0 -0 -1 -1 -2 -3 -3 -4 -4 -4 -4 -4 -4 -5 -5 -6 -5 -6 -6 -6 -7 -7 -6 -6 -7 -7
11 12 13 13 12 11 10 7 7 7 7 5 5 3 3 2 1 1 0 -1 -1 -1 -2 -3 -4 -4 -5 -4 -4 -4 -4 -5 -5 -6 -6 -6 -8 -8 -8 -9 -9 -8 -8 -8
11 13 12 12 11 9 8 7 7 6 5 5 5 4 3 2 0 0 -1 -1 -1 -2 -3 -4 -4 -5 -5 -5 -5 -5 -5 -5 -6 -6 -6 -7 -7 -7 -9 -10 -10 -10 -10 -10
12 13 10 6 7 7 6 6 6 5 5 5 4 3 2 0 0 -0 -1 -1 -2 -2 -3 -4 -5 -6 -7 -7 -6 -6 -6 -7 -7 -7 -7 -8 -8 -8 -7 -8 -10 -10 -11 -11
13 12 8 8 8 6 6 5 3 4 4 4 3 1 1 1 -0 -1 -1 -2 -3 -4 -4 -5 -7 -8 -9 -9 -9 -9 -9 -9 -8 -8 -9 -8 -8 -8 -8 -8 -8 -8 -10 -11
12 11 10 8 7 6 5 4 3 3 3 2 2 1 0 -0 -1 -2 -3 -4 -4 -5 -6 -7 -8 -9 -9 -9 -9 -9 -8 -8 -9 -9 -9 -10 -9 -9 -9 -9 -9 -9 -10 -11
11 8 7 7 7 5 4 4 4 3 2 1 1 1 0 -1 -2 -3 -3 -4 -5 -5 -7 -8 -9 -9 -10 -10 -9 -9 -9 -10 -10 -9 -9 -9 -9 -10 -10 -10 -10 -11 -11 -13
7 6 6 6 6 4 4 4 4 2 1 0 -0 -1 -1 -3 -4 -5 -6 -6 -7 -8 -9 -9 -10 -9 -9 -9 -9 -9 -9 -9 -11 -10 -10 -11 -11 -11 -11 -11 -12 -12 -13 -14
9 9 7 7 6 4 4 3 2 1 -0 -1 -3 -4 -5 -5 -4 -7 -7 -8 -9 -9 -9 -9 -10 -9 -10 -10 -10 -10 -10 -10 -11 -11 -11 -12 -13 -12 -13 -13 -13 -14 -14 -15
7 7 7 6 5 4 3 2 1 -1 -2 -5 -6 -5 -5 -5 -6 -7 -8 -9 -9 -9 -9 -10 -10 -10 -10 -11 -10 -11 -11 -11 -12 -12 -13 -14 -13 -14 -14 -15 -15 -15 -16 -16
6 5 5 4 3 2 1 -1 -3 -4 -5 -5 -5 -6 -6 -7 -8 -9 -8 -7 -6 -6 -9 -10 -10 -10 -11 -11 -12 -12 -12 -12 -13 -13 -15 -14 -15 -15 -16 -17 -17 -17 -17 -18
2 2 1 0 -1 -1 -2 -3 -4 -5 -6 -6 -5 -6 -7 -8 -9 -9 -8 -6 -9 -9 -9 -10 -10 -11 -12 -12 -12 -13 -14 -14 -14 -15 -16 -16 -16 -16 -17 -18 -18 -18 -19 -19
-0 -0 -1 -2 -2 -3 -4 -4 -4 -6 -7 -7 -7 -8 -9 -9 -9 -8 -7 -5 -9 -10 -10 -10 -11 -12 -13 -13 -14 -14 -15 -15 -16 -16 -16 -17 -18 -18 -18 -19 -19 -20 -20 -20
-1 -1 -2 -3 -3 -4 -5 -5 -6 -6 -7 -8 -8 -8 -6 -7 -7 -6 -6 -8 -9 -10 -10 -12 -12 -13 -13 -15 -16 -16 -17 -17 -17 -18 -18 -19 -19 -20 -20 -20 -22 -21 -22 -22
-2 -2 -4 -5 -5 -5 -4 -6 -6 -7 -7 -8 -8 -8 -7 -7 -7 -6 -7 -9 -10 -12 -12 -13 -13 -14 -15 -16 -17 -17 -17 -18 -18 -19 -19 -21 -21 -21 -21 -22 -23 -23 -23 -24
-3 -4 -5 -4 -3 -2 -4 -5 -5 -6 -6 -6 -7 -8 -7 -6 -6 -8 -9 -11 -12 -12 -15 -14 -14 -16 -17 -17 -18 -18 -19 -19 -20 -20 -21 -21 -22 -22 -23 -23 -24 -25 -25 -25
-2 -2 -2 -2 -1 -3 -3 -4 -3 -5 -5 -6 -6 -7 -7 -8 -9 -10 -11 -13 -13 -14 -15 -16 -17 -17 -18 -18 -19 -20 -20 -20 -21 -22 -23 -23 -23 -24 -24 -25 -26 -26 -26 -26
-3 -3 -3 -3 -3 -3 -4 -3 -4 -5 -5 -5 -6 -7 -8 -9 -10 -11 -13 -13 -14 -15 -16 -17 -18 -18 -19 -19 -20 -21 -21 -22 -22 -23 -23 -24 -24 -25 -26 -26 -26 -27 -27 -27